Willmar, MN

4:00 PM CDT on September 23, 2017 (GMT -0500)
Willmar

Weather History for KBDH - March, 2013

Change the Weather History Date:

Friday, March 29, 2013

  Actual Average (KBBB) Record (KBBB)
Temperature  
Mean Temperature 42 °F -  
Max Temperature 48 °F 45 °F 76 °F (1986)
Min Temperature 35 °F 26 °F -12 °F (1969)
Degree Days  
Heating Degree Days 24    
Moisture  
Dew Point 31 °F    
Average Humidity 66    
Maximum Humidity 75    
Minimum Humidity 57    
Precipitation  
Precipitation 0.00 in - - ()
Sea Level Pressure  
Sea Level Pressure 30.16 in    
Wind  
Wind Speed 9 mph (SE)    
Max Wind Speed 14 mph    
Max Gust Speed -    
Visibility 7 miles    
Events      
Averages and records for this station are not official NWS values.
T = Trace of Precipitation, MM = Missing Value Source: NWS Daily Summary

Daily Weather History Graph

Daily Weather History Graph

Search for Another Location

Airport or City:

Trip Planner

Search our weather history database for the weather conditions in past years. The results will help you decide how hot, cold, wet, or windy it might be!

Date:

Astronomy

Mar. 29, 2013 Rise Set
Actual Time 7:06 AM CDT 7:44 PM CDT
Civil Twilight 6:36 AM CDT 8:14 PM CDT
Nautical Twilight 6:01 AM CDT 8:49 PM CDT
Astronomical Twilight 5:25 AM CDT 9:26 PM CDT
Moon 10:55 PM CDT (3/29) 8:07 AM CDT (3/29)
Length of Visible Light 13h 38m
Length of Day
12h 38m
Waning Gibbous, 93% of the Moon is Illuminated
Mar 29
Waning Gibbous
Apr 2
Last Quarter
Apr 10
New
Apr 18
First Quarter
Apr 25
Full

Hourly Weather History & Observations

Time (CDT) Temp. Windchill Dew Point Humidity Pressure Visibility Wind Dir Wind Speed Gust Speed Precip Events Conditions
12:15 AM 37.4 °F 30.3 °F 26.6 °F 65% 30.24 in 10.0 mi SE 10.4 mph - N/A   Scattered Clouds
12:35 AM 37.4 °F 30.3 °F 26.6 °F 65% 30.24 in 10.0 mi SE 10.4 mph - N/A   Scattered Clouds
12:55 AM 37.4 °F 30.8 °F 26.6 °F 65% 30.24 in 10.0 mi SE 9.2 mph - N/A   Scattered Clouds
1:15 AM 37.4 °F 30.8 °F 26.6 °F 65% 30.25 in 7.0 mi SE 9.2 mph - N/A   Scattered Clouds
1:35 AM 37.4 °F 30.8 °F 28.4 °F 70% 30.25 in 7.0 mi SE 9.2 mph - N/A   Scattered Clouds
1:55 AM 37.4 °F 30.8 °F 28.4 °F 70% 30.25 in 7.0 mi SE 9.2 mph - N/A   Scattered Clouds
2:15 AM 37.4 °F 30.8 °F 28.4 °F 70% 30.25 in 7.0 mi SE 9.2 mph - N/A   Clear
2:35 AM 37.4 °F 31.4 °F 28.4 °F 70% 30.24 in 7.0 mi SE 8.1 mph - N/A   Clear
2:55 AM 37.4 °F 30.8 °F 28.4 °F 70% 30.24 in 7.0 mi SE 9.2 mph - N/A   Scattered Clouds
3:15 AM 37.4 °F 31.4 °F 28.4 °F 70% 30.24 in 7.0 mi SE 8.1 mph - N/A   Mostly Cloudy
3:35 AM 35.6 °F 28.6 °F 28.4 °F 75% 30.24 in 7.0 mi SE 9.2 mph - N/A   Scattered Clouds
3:55 AM 35.6 °F 28.6 °F 28.4 °F 75% 30.23 in 7.0 mi SE 9.2 mph - N/A   Scattered Clouds
4:15 AM 35.6 °F 29.2 °F 28.4 °F 75% 30.23 in 7.0 mi SE 8.1 mph - N/A   Scattered Clouds
4:35 AM 35.6 °F 28.6 °F 28.4 °F 75% 30.22 in 7.0 mi SE 9.2 mph - N/A   Clear
4:55 AM 35.6 °F 29.2 °F 28.4 °F 75% 30.22 in 7.0 mi SE 8.1 mph - N/A   Mostly Cloudy
5:15 AM 35.6 °F 28.6 °F 28.4 °F 75% 30.22 in 7.0 mi SE 9.2 mph - N/A   Scattered Clouds
5:35 AM 35.6 °F 29.2 °F 28.4 °F 75% 30.22 in 7.0 mi SE 8.1 mph - N/A   Mostly Cloudy
5:55 AM 35.6 °F 29.9 °F 28.4 °F 75% 30.22 in 5.0 mi SE 6.9 mph - N/A   Haze
6:15 AM 35.6 °F 30.7 °F 28.4 °F 75% 30.22 in 5.0 mi SE 5.8 mph - N/A   Haze
6:35 AM 35.6 °F 30.7 °F 28.4 °F 75% 30.22 in 5.0 mi SE 5.8 mph - N/A   Haze
6:55 AM 35.6 °F 29.9 °F 28.4 °F 75% 30.21 in 5.0 mi SE 6.9 mph - N/A   Haze
7:15 AM 37.4 °F 30.8 °F 28.4 °F 70% 30.21 in 5.0 mi SE 9.2 mph - N/A   Haze
7:35 AM 35.6 °F 29.9 °F 28.4 °F 75% 30.22 in 5.0 mi SE 6.9 mph - N/A   Haze
7:55 AM 35.6 °F 30.7 °F 28.4 °F 75% 30.22 in 5.0 mi SE 5.8 mph - N/A   Haze
8:15 AM 35.6 °F 30.7 °F 28.4 °F 75% 30.23 in 4.0 mi SE 5.8 mph - N/A   Haze
8:36 AM 37.4 °F 32.8 °F 28.4 °F 70% 30.22 in 5.0 mi SE 5.8 mph - N/A   Haze
8:55 AM 37.4 °F 32.8 °F 28.4 °F 70% 30.22 in 5.0 mi SE 5.8 mph - N/A   Haze
9:15 AM 37.4 °F 32.8 °F 28.4 °F 70% 30.22 in 5.0 mi SE 5.8 mph - N/A   Haze
9:35 AM 39.2 °F 34.2 °F 28.4 °F 65% 30.22 in 5.0 mi ESE 6.9 mph - N/A   Haze
9:55 AM 39.2 °F 33.6 °F 28.4 °F 65% 30.22 in 5.0 mi SE 8.1 mph - N/A   Haze
10:15 AM 39.2 °F 33.6 °F 30.2 °F 70% 30.22 in 5.0 mi SE 8.1 mph - N/A   Haze
10:35 AM 39.2 °F 34.2 °F 30.2 °F 70% 30.21 in 5.0 mi SE 6.9 mph - N/A   Haze
10:55 AM 41.0 °F 35.2 °F 30.2 °F 65% 30.22 in 7.0 mi SE 9.2 mph - N/A   Clear
11:15 AM 41.0 °F 35.2 °F 30.2 °F 65% 30.21 in 7.0 mi SE 9.2 mph - N/A   Clear
11:55 AM 42.8 °F 37.5 °F 30.2 °F 61% 30.20 in 7.0 mi SE 9.2 mph - N/A   Clear
12:15 PM 42.8 °F 37.5 °F 30.2 °F 61% 30.20 in 7.0 mi SE 9.2 mph - N/A   Clear
12:35 PM 42.8 °F 38.6 °F 30.2 °F 61% 30.19 in 7.0 mi ESE 6.9 mph - N/A   Clear
12:55 PM 42.8 °F 37.5 °F 30.2 °F 61% 30.19 in 7.0 mi SE 9.2 mph - N/A   Clear
1:15 PM 42.8 °F 37.5 °F 30.2 °F 61% 30.18 in 7.0 mi SE 9.2 mph - N/A   Clear
1:35 PM 42.8 °F 36.6 °F 30.2 °F 61% 30.18 in 7.0 mi SE 11.5 mph - N/A   Clear
1:55 PM 44.6 °F 39.7 °F 30.2 °F 57% 30.17 in 7.0 mi SE 9.2 mph - N/A   Clear
2:15 PM 44.6 °F 38.8 °F 30.2 °F 57% 30.17 in 7.0 mi SE 11.5 mph - N/A   Clear
2:35 PM 44.6 °F 38.8 °F 30.2 °F 57% 30.16 in 7.0 mi ESE 11.5 mph - N/A   Clear
2:55 PM 46.4 °F 41.1 °F 32.0 °F 57% 30.14 in 7.0 mi ESE 11.5 mph - N/A   Clear
3:15 PM 46.4 °F 40.7 °F 33.8 °F 62% 30.13 in 7.0 mi ESE 12.7 mph - N/A   Clear
3:35 PM 46.4 °F 41.1 °F 33.8 °F 62% 30.12 in 7.0 mi ESE 11.5 mph - N/A   Clear
3:55 PM 48.2 °F - 33.8 °F 58% 30.11 in 7.0 mi ESE 11.5 mph - N/A   Clear
4:15 PM 48.2 °F - 35.6 °F 62% 30.10 in 7.0 mi ESE 11.5 mph - N/A   Clear
4:35 PM 48.2 °F - 35.6 °F 62% 30.09 in 7.0 mi ESE 12.7 mph - N/A   Clear
4:55 PM 48.2 °F - 35.6 °F 62% 30.08 in 7.0 mi ESE 10.4 mph - N/A   Clear
5:15 PM 48.2 °F - 35.6 °F 62% 30.08 in 7.0 mi ESE 9.2 mph - N/A   Clear
5:35 PM 48.2 °F - 35.6 °F 62% 30.08 in 7.0 mi ESE 9.2 mph - N/A   Clear
5:55 PM 48.2 °F - 35.6 °F 62% 30.07 in 7.0 mi SE 9.2 mph - N/A   Clear
6:15 PM 48.2 °F - 33.8 °F 58% 30.07 in 7.0 mi ESE 10.4 mph - N/A   Clear
6:35 PM 46.4 °F 41.9 °F 33.8 °F 62% 30.06 in 7.0 mi SE 9.2 mph - N/A   Clear
6:55 PM 46.4 °F 41.9 °F 33.8 °F 62% 30.06 in 7.0 mi ESE 9.2 mph - N/A   Clear
7:15 PM 46.4 °F 41.9 °F 33.8 °F 62% 30.06 in 7.0 mi ESE 9.2 mph - N/A   Clear
7:35 PM 46.4 °F 41.5 °F 33.8 °F 62% 30.05 in 7.0 mi ESE 10.4 mph - N/A   Scattered Clouds
7:55 PM 46.4 °F 41.9 °F 33.8 °F 62% 30.05 in 10.0 mi ESE 9.2 mph - N/A   Overcast
8:15 PM 44.6 °F 39.2 °F 33.8 °F 66% 30.05 in 10.0 mi ESE 10.4 mph - N/A   Mostly Cloudy
8:35 PM 44.6 °F 39.2 °F 33.8 °F 66% 30.04 in 10.0 mi ESE 10.4 mph - N/A   Scattered Clouds
8:55 PM 44.6 °F 39.2 °F 33.8 °F 66% 30.04 in 10.0 mi ESE 10.4 mph - N/A   Scattered Clouds
9:15 PM 44.6 °F 39.7 °F 33.8 °F 66% 30.04 in 10.0 mi ESE 9.2 mph - N/A   Mostly Cloudy
9:35 PM 44.6 °F 39.2 °F 33.8 °F 66% 30.04 in 7.0 mi ESE 10.4 mph - N/A   Mostly Cloudy
9:55 PM 44.6 °F 38.8 °F 33.8 °F 66% 30.04 in 7.0 mi ESE 11.5 mph - N/A   Mostly Cloudy
10:15 PM 44.6 °F 38.8 °F 33.8 °F 66% 30.03 in 7.0 mi ESE 11.5 mph - N/A   Scattered Clouds
10:35 PM 44.6 °F 38.4 °F 33.8 °F 66% 30.02 in 10.0 mi ESE 12.7 mph - N/A   Clear
10:55 PM 44.6 °F 38.8 °F 33.8 °F 66% 30.01 in 7.0 mi ESE 11.5 mph - N/A   Scattered Clouds
11:15 PM 44.6 °F 38.4 °F 33.8 °F 66% 30.01 in 7.0 mi ESE 12.7 mph - N/A   Mostly Cloudy
11:35 PM 44.6 °F 38.4 °F 33.8 °F 66% 30.00 in 7.0 mi SE 12.7 mph - N/A   Scattered Clouds
11:55 PM 44.6 °F 38.1 °F 33.8 °F 66% 29.98 in 7.0 mi SE 13.8 mph - N/A   Clear